| time (UTC) | temp C | wind direction | speed KPH | gust KPH | rain 1hr cm | rain 24hr cm | rain mn cm | humidity % | barometer mb |
| 20260505121518 | 8 | 319 | 0.0 | 0.0 | 0.00 | 0.08 | 0.03 | 92 | 1014.5 |
| 20260505120028 | 6 | 319 | 0.0 | 1.6 | 0.00 | 0.08 | 0.03 | 93 | 1014.4 |
| 20260505114504 | 5 | 120 | 0.0 | 1.6 | 0.00 | 0.08 | 0.03 | 94 | 1014.5 |
| 20260505113006 | 3 | 284 | 0.0 | 1.6 | 0.00 | 0.08 | 0.03 | 93 | 1014.5 |
| 20260505111512 | 3 | 131 | 0.0 | 0.0 | 0.00 | 0.08 | 0.03 | 93 | 1014.4 |
| 20260505101508 | 2 | 143 | 0.0 | 0.0 | 0.03 | 0.08 | 0.03 | 93 | 1013.6 |
| 20260505100016 | 2 | 141 | 0.0 | 0.0 | 0.00 | 0.05 | 0.00 | 92 | 1013.8 |
| 20260505094536 | 2 | 144 | 0.0 | 0.0 | 0.00 | 0.05 | 0.00 | 92 | 1013.7 |
| 20260505093023 | 2 | 138 | 0.0 | 0.0 | 0.00 | 0.05 | 0.00 | 93 | 1013.5 |
| 20260505091525 | 2 | 138 | 0.0 | 0.0 | 0.00 | 0.05 | 0.00 | 92 | 1013.6 |
| 20260505090012 | 2 | 137 | 0.0 | 0.0 | 0.00 | 0.05 | 0.00 | 92 | 1013.5 |
| 20260505084535 | 2 | 138 | 0.0 | 0.0 | 0.00 | 0.05 | 0.00 | 92 | 1013.5 |
| 20260505083021 | 2 | 138 | 0.0 | 0.0 | 0.00 | 0.05 | 0.00 | 92 | 1013.4 |
| 20260505081524 | 3 | 138 | 0.0 | 0.0 | 0.00 | 0.05 | 0.00 | 92 | 1013.3 |
| 20260505080026 | 3 | 126 | 0.0 | 0.0 | 0.00 | 0.05 | 0.00 | 92 | 1013.2 |
| 20260505074514 | 3 | 126 | 0.0 | 0.0 | 0.00 | 0.05 | 0.00 | 92 | 1013.0 |
| 20260505073017 | 3 | 126 | 0.0 | 0.0 | 0.00 | 0.05 | 0.00 | 92 | 1012.9 |
| 20260505071521 | 3 | 126 | 0.0 | 0.0 | 0.00 | 0.05 | 0.00 | 92 | 1012.7 |
| 20260505070033 | 3 | 125 | 0.0 | 0.0 | 0.00 | 0.05 | 0.00 | 92 | 1012.8 |
| 20260505064526 | 4 | 126 | 0.0 | 0.0 | 0.00 | 0.05 | 0.00 | 91 | 1012.8 |
| 20260505063014 | 4 | 126 | 0.0 | 0.0 | 0.00 | 0.05 | 0.00 | 91 | 1012.9 |
| 20260505061522 | 5 | 127 | 0.0 | 0.0 | 0.00 | 0.05 | 0.00 | 92 | 1012.8 |
| 20260505060032 | 5 | 127 | 0.0 | 0.0 | 0.00 | 0.05 | 0.00 | 91 | 1012.6 |
| 20260505054528 | 5 | 127 | 0.0 | 0.0 | 0.00 | 0.05 | 0.00 | 91 | 1012.6 |
| 20260505053011 | 5 | 278 | 0.0 | 1.6 | 0.00 | 0.05 | 0.00 | 91 | 1012.5 |
| 20260505051518 | 6 | 278 | 0.0 | 1.6 | 0.00 | 0.05 | 0.00 | 91 | 1012.6 |
| 20260505041512 | 6 | 349 | 0.0 | 1.6 | 0.00 | 0.05 | 0.00 | 90 | 1012.4 |
| 20260505040017 | 6 | 349 | 0.0 | 0.0 | 0.00 | 0.05 | 0.00 | 91 | 1012.3 |
| 20260505034525 | 6 | 349 | 0.0 | 1.6 | 0.00 | 0.05 | 0.05 | 91 | 1012.3 |
| 20260505033026 | 6 | 349 | 0.0 | 3.2 | 0.00 | 0.05 | 0.05 | 89 | 1012.5 |
| 20260505031526 | 6 | 155 | 0.0 | 0.0 | 0.00 | 0.05 | 0.05 | 90 | 1012.4 |
| 20260505030014 | 6 | 212 | 0.0 | 0.0 | 0.00 | 0.05 | 0.05 | 89 | 1012.5 |
| 20260505024518 | 7 | 212 | 0.0 | 0.0 | 0.00 | 0.05 | 0.05 | 89 | 1012.4 |
| 20260505023022 | 7 | 212 | 0.0 | 0.0 | 0.00 | 0.05 | 0.05 | 88 | 1012.3 |
| 20260505021524 | 7 | 212 | 0.0 | 1.6 | 0.00 | 0.05 | 0.05 | 88 | 1012.3 |
| 20260505020028 | 8 | 92 | 0.0 | 1.6 | 0.00 | 0.05 | 0.05 | 88 | 1012.1 |
| 20260505014514 | 8 | 115 | 0.0 | 3.2 | 0.00 | 0.05 | 0.05 | 87 | 1012.3 |
| 20260505013019 | 8 | 289 | 0.0 | 6.4 | 0.00 | 0.05 | 0.05 | 86 | 1012.1 |
| 20260505011544 | 10 | 121 | 0.0 | 3.2 | 0.00 | 0.05 | 0.05 | 86 | 1012.0 |
| 20260505010026 | 10 | 261 | 0.0 | 0.0 | 0.00 | 0.05 | 0.05 | 84 | 1011.9 |
| 20260505004526 | 11 | 261 | 0.0 | 0.0 | 0.00 | 0.05 | 0.05 | 83 | 1011.8 |
| 20260505003015 | 12 | 131 | 0.0 | 0.0 | 0.00 | 0.05 | 0.05 | 82 | 1011.5 |
| 20260505001518 | 13 | 131 | 0.0 | 0.0 | 0.00 | 0.05 | 0.05 | 77 | 1011.4 |
| 20260505000028 | 14 | 197 | 0.0 | 0.0 | 0.00 | 0.05 | 0.05 | 74 | 1011.3 |
| 20260504234529 | 16 | 260 | 0.0 | 0.0 | 0.00 | 0.05 | 0.05 | 66 | 1011.3 |
| 20260504233028 | 18 | 269 | 0.0 | 0.0 | 0.00 | 0.05 | 0.05 | 61 | 1011.4 |
| 20260504231516 | 21 | 278 | 1.6 | 4.8 | 0.00 | 0.05 | 0.05 | 44 | 1011.2 |
| 20260504230020 | 21 | 279 | 0.0 | 4.8 | 0.00 | 0.05 | 0.05 | 49 | 1011.1 |
| 20260504224529 | 20 | 162 | 1.6 | 8.0 | 0.00 | 0.05 | 0.05 | 47 | 1011.3 |
| 20260504223027 | 20 | 36 | 1.6 | 6.4 | 0.00 | 0.05 | 0.05 | 57 | 1011.3 |
| 20260504221526 | 20 | 75 | 4.8 | 9.7 | 0.00 | 0.05 | 0.05 | 57 | 1011.4 |
| 20260504220018 | 21 | 346 | 1.6 | 3.2 | 0.00 | 0.05 | 0.05 | 53 | 1011.6 |
| 20260504214522 | 20 | 110 | 4.8 | 8.0 | 0.00 | 0.05 | 0.05 | 56 | 1011.6 |
| 20260504213027 | 19 | 120 | 3.2 | 11.3 | 0.00 | 0.05 | 0.05 | 57 | 1011.7 |
| 20260504211527 | 19 | 266 | 3.2 | 6.4 | 0.05 | 0.05 | 0.05 | 54 | 1011.6 |
| 20260504210028 | 17 | 309 | 4.8 | 11.3 | 0.05 | 0.05 | 0.05 | 60 | 1011.6 |
| 20260504204520 | 16 | 359 | 3.2 | 14.5 | 0.05 | 0.05 | 0.05 | 68 | 1011.8 |
| 20260504203022 | 16 | 9 | 9.7 | 25.7 | 0.05 | 0.05 | 0.05 | 60 | 1012.3 |
| 20260504201524 | 20 | 267 | 6.4 | 20.9 | 0.00 | 0.00 | 0.00 | 48 | 1011.7 |
| 20260504200029 | 21 | 237 | 6.4 | 20.9 | 0.00 | 0.00 | 0.00 | 44 | 1011.4 |
| 20260504194517 | 21 | 288 | 4.8 | 19.3 | 0.00 | 0.00 | 0.00 | 45 | 1011.3 |
| 20260504193021 | 21 | 277 | 11.3 | 20.9 | 0.00 | 0.00 | 0.00 | 41 | 1011.7 |
| 20260504191506 | 21 | 204 | 4.8 | 17.7 | 0.00 | 0.00 | 0.00 | 43 | 1011.6 |
| 20260504190006 | 20 | 273 | 17.7 | 32.2 | 0.00 | 0.00 | 0.00 | 46 | 1011.9 |
| 20260504184510 | 20 | 274 | 9.7 | 25.7 | 0.00 | 0.00 | 0.00 | 47 | 1011.9 |
| 20260504183015 | 20 | 224 | 11.3 | 19.3 | 0.00 | 0.00 | 0.00 | 45 | 1012.3 |
| 20260504181521 | 19 | 264 | 8.0 | 20.9 | 0.00 | 0.00 | 0.00 | 48 | 1012.5 |
| 20260504180004 | 19 | 275 | 6.4 | 25.7 | 0.00 | 0.00 | 0.00 | 48 | 1012.6 |
| 20260504174511 | 18 | 169 | 8.0 | 22.5 | 0.00 | 0.00 | 0.00 | 48 | 1012.7 |
| 20260504173012 | 19 | 304 | 9.7 | 24.1 | 0.00 | 0.00 | 0.00 | 47 | 1012.9 |
| 20260504171530 | 19 | 243 | 6.4 | 20.9 | 0.00 | 0.00 | 0.00 | 47 | 1013.1 |